www.weatherandclimate.eu
Time
(UTC), date
09 23.11
12 23.11
15 23.11
18 23.11
21 23.11
00 24.11
03 24.11
06 24.11
09 24.11
12 24.11
15 24.11
18 24.11
21 24.11
00 25.11
03 25.11
06 25.11
09 25.11
12 25.11
15 25.11
18 25.11
21 25.11
00 26.11
03 26.11
06 26.11
09 26.11
12 26.11
15 26.11
18 26.11
21 26.11
00 27.11
03 27.11
06 27.11
09 27.11
12 27.11
15 27.11
18 27.11
21 27.11
00 28.11
03 28.11
06 28.11
09 28.11
12 28.11
15 28.11
18 28.11
21 28.11
00 29.11
03 29.11
06 29.11
09 29.11
12 29.11
15 29.11
18 29.11
21 29.11
00 30.11
03 30.11
06 30.11
Wind
(dir.,m/s)
Visibility Phenomena Clouds Т
(С)
Тd
(С)
f
(%)
Тe
(С)
Тes
(С)
Comfort P
(hPa)
Po
hPa)
Тmin
(С)
Tmax
(С)
R
(mm)
R24
(mm)
S
(sm)
W 2 н/о 3/0
[Ci fib]
-9.6 -16.0 60 -14 -14 very cold 1024.4 999.5
W 2 н/о 3/0
[Ci fib]
-11.5 -16.8 65 -16 -16 very cold 1028.0 1002.7 -4.4
NW 2 н/о ясно -16.8 -19.4 80 -22 -22 very cold 1031.0 1005.1
NW 2 н/о ясно -20.6 -23.1 80 -27 -27 very cold 1033.6 1007.3
NW 1 н/о ясно -25.5 -28.0 79 -29 -29 very cold 1035.4 1008.6
0 н/о 4/0
[Ac trans]
-25.5 -28.0 79 -26 -26 very cold 1036.1 1009.3 -26.5 29
SE 1 20 km slightsnow 10/0
[Ac trans Cs]
-23.4 -25.9 80 -27 -27 very cold 1036.3 1009.7
SE 1 20 km snowwithinpasthour 10/3 1000 м
[Sc Ac trans Cs]
-21.9 -24.5 79 -25 -25 very cold 1036.1 1009.6
SW 1 н/о 10/4 1000 м
[Sc Ac As]
-20.2 -22.8 80 -23 -23 very cold 1036.0 1009.7
W 1 н/о 9/6 1000 м
[Sc Ac As]
-18.2 -20.1 85 -21 -21 very cold 1036.4 1010.3 -17.5 0.0
0 н/о slightsnow 10/4 1000 м
[Sc Ac As]
-16.9 -18.8 85 -17 -17 very cold 1036.1 1027.6
0 н/о slightsnow 10/4 1000 м
[Sc Ac As]
-15.3 -17.3 85 -15 -15 very cold 1036.2 1010.2
0 н/о {snow} 10/3 1000 м
[Sc Ac As]
-14.8 -16.8 85 -15 -15 very cold 1036.3 1010.5
NW 2 н/о {snow} 6/0
[Ac trans Ci fib]
-12.8 -14.8 85 -17 -17 very cold 1036.5 1010.9 -18.2 0.0 29
NW 1 20 km 6/0
[Ac trans Ci fib]
-16.7 -18.6 85 1037.2 1011.5
0 20 km slightsnow 8/4 1000 м
[Sc Ac trans Ci sp]
-15.9 -17.8 85 -16 -16 very cold 1038.1 1012.2
NW 1 н/о {snow} 4/1 1000 м
[Sc Ac trans Ci fib]
-16.0 -17.9 85 -19 -19 very cold 1038.7 1012.7
NW 1 н/о {snow} 3/0
[Ci fib]
-19.0 -20.9 85 -22 -22 very cold 1039.5 1013.2 -12.8 0.2
0 н/о 8/0
[Ac trans Ci sp]
-20.6 -22.5 85 -21 -21 very cold 1040.2 1013.7
0 н/о 8/0
[Ac trans Ci sp]
-21.0 -22.9 85 -21 -21 very cold 1040.5 1014.0
0 н/о 4/0
[Ac lent Ci sp]
-19.8 -21.7 85 -20 -20 very cold 1039.7 1013.3
0 н/о 3/0
[Ci fib]
-22.2 -24.1 84 -22 -22 very cold 1040.0 1013.4 -22.4 29
0 20 km 8/0
[Ac trans Ci fib]
-23.0 -24.9 84 -23 -23 very cold 1040.0 1013.2 -23.6
NW 2 20 km 8/0
[Ac trans Ci fib]
-20.0 -21.9 85 -26 -26 very cold 1039.6 1013.2
0 н/о 9/3 1000 м
[Sc Ac trans Ci sp]
-20.4 -22.3 85 -20 -20 very cold 1039.4 1013.0
0 н/о 6/0
[Ac trans Ci fib]
-22.2 -24.1 84 -22 -22 very cold 1039.9 1013.3 -19.3
0 н/о slightsnow 10/3 1000 м
[Sc Ac As]
-21.7 -23.5 85 -22 -22 very cold 1039.6 1013.0
0 н/о slightsnow 8/3 1000 м
[Sc Ac trans Ci sp]
-21.8 -23.6 85 -22 -22 very cold 1039.6 1013.0
NW 2 н/о {snow} 6/0
[Ac trans Ci fib]
-19.0 -20.9 85 -25 -25 very cold 1040.1 1013.8
NW 1 н/о {snow} 6/0
[Ac trans Ci fib]
-21.6 -24.2 79 -23 -23 very cold 1041.3 1014.5 -23.4 0.7 29
0 20 km 10/1 1000 м
[Sc Ac As Ci fib]
-25.9 -28.4 79 -26 -26 very cold 1042.4 1015.3 -26.2
0 20 km 10/4 1000 м
[Sc Ac trans Ci fib]
-24.4 -26.9 80 -24 -24 very cold 1042.9 1016.0
0 н/о {snow} 10/10 1000 м
[Sc]
-22.6 -24.4 85 -23 -23 very cold 1042.9 1016.1
0 н/о {snow} 3/0
[Ac trans Ci fib]
-21.4 -23.2 85 -21 -21 very cold 1042.9 1016.4 -20.3 0.0
0 н/о ясно -24.4 -26.9 80 -24 -24 very cold 1043.6 1016.7
N 1 н/о ясно -25.5 -28.0 79 -29 -29 very cold 1044.7 1017.6
0 н/о ясно -28.1 -31.3 74 1045.4 1018.1
0 н/о ясно -28.1 -30.5 80 -28 -28 very cold 1045.5 1018.1 -29.1 29
0 20 km 8/0
[Ac trans]
-28.6 -31.0 80 -29 -29 very cold 1044.8 1017.4 -29.4
0 20 km 9/0
[Ac trans Ci fib]
-26.0 -28.4 80 -26 -26 very cold 1043.8 1016.7
0 н/о 10/0
[Ac trans Cs]
-25.6 -28.1 79 -26 -26 very cold 1043.3 1016.2
0 н/о 6/0
[Cs]
-26.3 -28.7 80 -26 -26 very cold 1042.8 1015.7 -25.6
0 н/о slightsnow 10/0
[Cs]
-27.8 -30.3 79 -28 -28 very cold 1042.5 1015.2
0 н/о {snow} 10/0
[Ac As Cs]
-28.2 -30.7 79 -28 -28 very cold 1042.2 1014.9
SE 2 н/о slightsnow 10/0
[Ac As]
-27.3 -29.8 79 -34 -34 risk of frostbite 1040.9 1013.7
0 н/о {snow} 10/0
[Ac As Cs]
-26.2 -28.7 79 -26 -26 very cold 1040.1 1013.0 -28.8 0.2 29
0 20 km 6/0
[Ac trans Ci fib]
-27.2 -29.6 80 -27 -27 very cold 1039.4 1012.3
0 20 km 8/0
[Ac trans Ci fib]
-25.8 -28.3 79 -26 -26 very cold 1038.4 1011.5
0 н/о 3/0
[Ci fib]
-26.2 -28.7 79 -26 -26 very cold 1037.7 1010.8
0 н/о 8/0
[Ac trans Ci fib]
-27.2 -30.2 76 1037.1 1010.1 -25.6
0 н/о 4/0
[Ci fib]
-26.7 -29.2 79 -27 -27 very cold 1036.4 1009.3
SE 1 н/о 3/0
[Ci fib]
-28.0 -30.5 79 -32 -32 risk of frostbite 1035.6 1008.4
NW 1 н/о 3/0
[Ci fib]
-22.7 -25.2 80 -26 -26 very cold 1034.4 1007.8
NW 1 н/о 3/0
[Ci fib]
-27.3 -29.8 79 -31 -31 risk of frostbite 1033.9 1007.0 -30.3 29
N 1 20 km 4/0
[Ac trans Ci fib]
-22.0 -23.9 84 -25 -25 very cold 1032.5 1006.1
0 20 km 8/4 1000 м
[Sc Ac trans Ci fib]
-20.4 -22.3 85 -20 -20 very cold 1031.6 1005.4
Weather station location Тура (Evenkia, Russia): latitude 64.33 longitude 100.40 Height above sea level 624 m.
The archive shows weather in в Туре for the last week. For the whole month and for the previous months, starting from January 2011, you can obtain archived data by selecting the date range of interest from the drop-down list and clicking the "Find!".
*Decide who are you:
Attention! The time in the tables is UTC. To get the local time, you must add an amendment that is equal to 7 h.
See also the weather archive in nearby cities and at nearby weather stations:
Partners of our site:
Column explanations:
  • Wind - indicated wind speed in m/s - average for 10 minutes, gusts in time and between periods (in brackets) and the direction from which the wind blows: N - North, NE - North-East, E - East, SE - South-East , S - South, SW - South-West, W - West, NW - North-West.
  • Visibility - horizontal visibility range in meters or kilometers. When visibility is from 1 to 10 km in the absence of precipitation, haze is usually observed, and when visibility is reduced to 1 km or less, fog is observed. In dry weather, visibility may be reduced by smoke, dust, or haze.
  • Phenomena - atmospheric phenomena observed during the period or in the last hour before the period are indicated; curly brackets indicate phenomena observed between periods (1-3 hours before the period); square brackets indicate hail or ice deposits with their diameter in mm.
  • Clouds - are through slash total and lower clouds in points, and the height of the lower border of the cloud in meters; square brackets contain cloud forms: Ci - Cirrus, Cs - Cirrostratus, Cc - Cirrocumulus, Ac - Altocumulus, As - Altostratus, Sc - Stratocumulus, Ns - Nimbostratus, Cu - Cumulus, Cb - Cumulonimbus. For more information about cloud classification, see the cloud Atlas (PDF).
  • T - Air temperature - temperature measured at a height of 2 m above the ground.
  • Td - Dew point temperature - the temperature is lowered to that contained in the air, the water vapor reaches saturation.
  • f - Relative humidity measured at a height of 2 m above the ground.
  • Te - Effective temperature is the temperature that a seasonally dressed person feels in the shade. Characteristic of stuffy weather. The calculation takes into account the influence of air humidity and wind speed on a person’s heat.
  • Tes - Effective sun temperature - the temperature that a person feels, adjusted for solar heating. Characteristics of the sultry weather. Depends on the height of the sun above the horizon, cloud cover and wind speed. At night, in cloudy weather, as well as in winds of 12 m/s or more, the correction is zero.
  • P - Atmospheric pressure - atmospheric pressure reduced to sea level.
  • Po - Atmospheric pressure - atmospheric pressure measured at the station level.
  • Tmin - Minimum temperature - minimum air temperature at a height of 2 m above the ground.
  • Tmax - Maximum temperature - maximum air temperature at a height of 2 m above the ground.
  • R - Precipitation - The amount of precipitation over a period of time, mm. When you hover over the number, the time period for which the specified amount of precipitation has fallen.
  • R24 - Количество осадков - The amount of precipitation in 24 hours, mm.
  • S - Snow cover - The height of the snow cover. When you hover the mouse over the number - the state of the snow cover and the degree of coverage in points.